Theta_e
346 343 340 341 340 335 331 329 327 323 326 333 336 343 346 350 351 352 351 348 349 347 344 341 340 340 341 343 344 344 345 345 341 337 339 338 336 332
345 343 343 342 340 338 340 341 336 332 328 334 339 343 348 351 354 355 354 350 349 347 345 342 342 340 340 340 341 342 342 341 337 335 335 334 334 334
349 346 344 344 343 342 345 348 348 343 338 345 344 348 347 350 352 351 350 350 353 350 345 343 340 339 338 339 338 339 340 338 335 333 334 333 332 332
352 350 349 352 349 345 346 348 347 348 344 345 344 346 349 349 348 347 351 352 347 348 340 338 337 335 334 334 334 334 334 333 331 330 332 332 332 332
353 352 353 352 349 349 349 350 351 353 349 345 348 346 348 350 348 344 341 344 348 350 340 337 336 334 334 331 331 329 327 325 325 326 327 328 330 331
353 355 354 351 351 351 350 351 352 349 349 347 350 351 349 351 341 339 343 345 348 354 342 339 337 337 334 332 332 331 324 320 320 320 320 320 321 324
353 354 355 353 349 350 353 353 351 348 351 349 348 344 346 345 340 342 343 345 349 350 342 341 336 334 333 333 334 332 326 323 319 317 317 316 315 316
352 353 354 350 349 342 340 340 347 349 350 349 348 345 345 346 346 345 343 340 339 347 342 342 338 337 336 331 332 329 325 323 320 318 316 315 314 313
349 352 352 356 348 352 345 337 337 334 338 347 343 345 344 346 345 345 341 337 339 345 340 335 340 337 328 333 327 325 323 321 319 318 317 315 314 312
345 347 349 351 352 349 348 348 350 350 347 342 340 346 346 348 344 347 344 343 341 348 343 339 335 334 326 323 325 323 321 319 318 318 315 314 311 310
348 349 349 351 340 330 343 346 347 349 344 332 332 332 333 331 336 339 340 337 336 340 341 338 332 328 326 321 320 321 317 316 315 315 314 312 308 308
346 349 337 336 321 320 332 336 338 343 345 346 349 344 336 340 330 338 341 339 337 336 339 335 329 327 319 316 316 314 313 313 311 311 311 309 307 304
343 342 346 324 322 318 318 332 336 340 339 343 345 344 345 346 347 340 341 342 338 338 339 336 326 323 322 314 314 314 312 308 308 308 307 306 306 305
336 337 337 319 316 316 318 320 318 320 332 335 336 339 341 343 345 345 341 340 340 344 340 334 328 325 321 316 312 312 311 309 305 304 305 305 306 305
336 328 321 316 311 319 319 317 318 333 334 335 337 338 341 344 342 336 334 332 330 331 333 331 328 324 324 323 315 310 310 310 307 304 304 303 302 300
328 329 323 320 319 322 326 336 337 336 336 337 342 342 344 344 342 340 333 331 329 327 328 328 327 325 322 321 316 310 309 308 311 308 307 306 304 303
313 323 328 334 333 332 332 333 333 332 329 332 335 334 337 339 341 341 337 333 330 324 321 321 322 323 322 319 314 311 310 309 312 310 305 299 299 300
318 326 328 327 325 323 321 322 324 321 321 326 327 328 329 331 334 339 337 333 332 326 322 320 316 315 315 315 313 309 308 308 309 305 304 298 297 298
319 319 318 318 318 317 316 315 314 316 318 318 322 323 325 327 327 332 336 333 330 329 323 320 317 316 313 314 306 305 309 310 306 304 302 301 297 297
317 315 315 318 317 316 315 313 314 314 314 315 316 316 318 319 322 328 331 335 333 328 322 320 319 319 318 317 313 299 304 306 307 302 299 298 300 305
316 314 313 314 315 314 313 312 311 311 310 311 311 311 313 315 316 322 327 318 324 328 323 320 322 320 317 309 306 299 298 306 307 303 299 297 296 298
315 314 312 311 312 313 312 311 310 309 304 305 307 308 310 312 314 316 322 326 328 329 329 326 322 321 315 314 310 300 297 299 305 306 306 304 302 297
314 313 311 310 309 308 306 305 304 302 297 297 298 300 304 308 312 315 318 323 326 329 327 322 321 321 319 316 310 302 299 299 299 299 299 305 307 308
Wind_Speed
6 5 3 4 3 3 3 3 4 3 4 4 3 3 4 3 6 6 6 9 15 17 17 18 18 17 17 13 12 12 9 15 15 13 10 9 10 12
3 5 4 3 4 3 3 2 3 3 4 4 4 4 5 5 7 7 6 12 12 15 15 16 16 9 16 12 11 11 12 13 16 14 11 10 10 9
5 6 7 5 5 4 4 2 3 4 4 5 2 4 4 6 8 6 6 6 5 14 14 14 13 11 5 8 12 8 10 13 15 14 13 12 11 10
7 7 8 5 7 6 4 6 4 4 4 10 3 3 6 4 6 7 6 6 5 10 7 10 10 0 9 10 4 8 6 11 15 14 11 11 11 11
7 7 8 6 6 5 6 6 4 4 4 4 8 3 4 3 3 4 6 6 6 10 1 3 6 1 6 6 3 1 6 9 11 10 11 10 10 10
7 7 7 7 8 7 6 9 7 6 6 4 7 8 4 5 3 4 7 3 8 8 2 3 2 4 3 3 3 4 7 8 10 9 9 9 8 9
7 7 7 9 12 11 5 7 6 5 6 5 5 4 6 5 4 3 5 5 8 3 1 2 1 0 1 4 2 4 6 7 8 7 8 8 8 7
9 8 8 8 10 12 14 15 11 8 10 7 7 8 11 7 4 4 4 3 6 1 1 2 2 0 1 2 5 6 6 7 7 9 8 8 7 6
6 7 8 8 10 8 11 13 13 13 14 9 8 10 10 10 5 7 5 4 4 8 1 3 1 1 3 2 6 7 8 8 9 8 7 7 6 6
6 6 8 11 10 8 8 8 9 8 8 7 10 13 13 14 6 6 5 5 4 8 3 4 1 2 2 3 5 6 5 7 8 8 7 7 6 5
6 6 7 9 10 10 8 10 13 13 10 13 14 14 17 17 7 1 5 4 3 4 2 2 1 2 1 1 2 4 6 6 7 7 8 7 6 4
5 4 8 3 2 5 3 6 10 12 10 13 12 9 9 9 10 9 4 5 3 3 3 3 3 2 1 1 0 1 2 3 5 6 7 8 7 3
4 4 4 8 7 7 4 6 12 11 12 9 9 7 6 6 5 5 6 5 3 4 4 3 2 2 2 2 1 2 3 2 3 2 5 7 7 5
5 4 4 8 8 9 3 11 10 9 4 6 6 7 6 6 5 1 2 3 3 4 7 5 3 3 3 2 1 0 2 2 3 2 3 3 4 7
5 5 8 12 12 9 12 8 10 2 4 5 7 6 4 5 2 3 3 3 2 3 2 4 3 3 3 3 3 3 2 3 4 4 4 4 4 2
4 2 5 9 11 9 6 2 4 2 4 4 4 4 4 4 2 3 4 4 2 1 3 4 2 4 3 2 3 3 3 3 2 3 4 3 2 2
5 3 3 3 3 5 4 5 4 5 4 4 4 4 4 4 3 2 3 3 3 3 3 2 2 3 3 4 2 2 2 2 2 4 4 3 3 2
0 1 3 3 4 5 5 5 4 5 5 4 4 4 3 4 5 5 2 3 4 4 4 4 3 2 2 3 6 2 2 2 1 4 5 5 2 1
2 2 3 3 3 4 4 4 3 3 4 4 5 6 6 6 6 5 4 3 4 4 4 4 5 3 4 4 2 12 3 2 3 2 3 3 4 4
0 2 2 2 2 3 4 4 5 5 6 6 6 5 5 6 7 7 5 6 6 4 4 5 5 6 6 5 4 2 9 2 4 4 3 2 5 6
2 2 2 2 2 2 2 3 4 4 5 5 5 5 6 6 7 7 7 10 6 3 5 6 8 6 5 6 4 2 3 11 5 5 6 4 3 3
3 4 3 2 2 1 1 2 3 3 4 4 5 5 6 5 6 8 9 8 7 4 4 3 5 7 3 4 3 5 3 2 14 20 13 4 6 7
5 5 4 4 3 3 2 1 2 3 3 4 4 4 5 7 7 6 7 8 8 7 3 3 4 3 4 4 6 5 7 5 3 3 4 14 8 5
Wind_Direction
238 247 236 254 234 228 210 185 175 286 291 301 291 293 312 303 295 297 289 278 268 270 263 255 243 234 237 233 236 233 235 197 191 202 215 206 209 218
247 250 255 265 272 255 254 238 188 204 264 220 271 286 303 302 292 300 302 291 291 296 288 272 269 240 243 230 217 223 218 203 182 184 201 191 207 207
244 234 252 249 263 259 249 260 236 179 243 293 262 277 287 292 304 303 289 288 296 288 302 306 311 265 268 206 214 206 220 191 176 187 197 196 200 211
239 229 243 241 251 250 249 256 244 240 215 283 251 273 269 280 268 289 298 305 290 294 330 353 303 267 167 194 177 196 239 187 175 190 192 198 209 215
227 233 246 236 253 248 244 250 248 246 226 245 287 250 276 276 296 283 284 287 285 282 145 310 315 358 38 86 113 347 186 181 173 187 194 196 212 214
237 231 241 242 243 248 249 253 253 252 249 242 273 283 263 293 248 270 300 278 296 298 100 260 19 32 78 150 184 175 188 175 176 192 186 188 212 223
244 237 233 229 228 235 223 255 243 255 264 267 268 269 270 286 256 249 273 284 292 259 168 267 293 31 259 234 190 168 187 169 167 180 181 195 207 221
246 252 249 251 253 247 240 238 235 239 262 267 271 264 276 272 267 256 261 299 298 177 105 245 145 310 320 224 193 176 174 176 173 173 182 200 214 218
258 263 270 266 258 260 262 260 261 241 232 255 257 265 277 277 257 278 234 214 259 303 57 295 154 68 40 1 179 166 173 164 165 174 191 201 204 207
248 254 256 271 269 262 262 260 259 257 243 218 225 258 264 272 220 239 252 250 268 274 186 270 83 74 67 20 135 157 157 156 170 179 187 193 181 186
224 233 248 263 270 272 273 271 277 278 270 250 252 252 254 261 254 141 257 211 268 256 314 178 140 130 80 79 14 141 158 171 178 174 161 168 165 147
238 252 238 174 67 39 354 305 293 287 294 294 293 272 250 253 249 208 215 228 210 261 215 174 139 142 115 7 168 124 141 181 178 181 162 167 155 113
240 238 195 182 195 191 236 269 273 289 295 297 295 290 286 272 256 203 212 211 186 260 166 128 144 134 80 137 262 215 184 162 154 173 175 178 173 146
269 278 253 236 241 256 251 262 265 264 277 288 284 280 273 277 276 214 135 97 296 239 157 121 153 160 143 148 228 351 215 214 150 179 174 122 101 93
288 353 328 287 294 321 279 297 265 315 295 292 275 272 263 257 145 102 74 89 86 22 35 116 149 159 162 154 156 205 155 225 185 163 165 162 164 180
311 308 275 263 271 262 296 340 46 314 250 256 266 283 290 308 285 178 180 181 139 114 34 68 144 148 153 150 150 181 198 185 185 156 137 103 88 125
319 327 330 350 353 350 8 7 19 22 6 333 332 331 324 337 327 280 187 169 188 168 144 98 79 114 103 139 182 210 191 220 198 143 99 90 32 81
49 10 21 5 10 4 2 347 18 357 346 328 316 306 315 327 315 315 236 205 195 174 163 161 170 125 77 91 49 184 187 215 110 108 122 106 98 318
1 16 51 22 5 353 351 348 337 325 314 330 334 340 336 322 316 297 294 226 224 184 174 167 172 165 141 193 146 36 178 142 124 77 68 92 156 192
46 57 47 43 24 0 359 349 342 349 353 346 341 336 329 335 322 312 310 291 239 183 163 174 188 191 167 179 158 132 23 136 131 114 103 63 74 112
135 128 138 100 36 9 5 345 339 346 339 338 345 339 337 331 322 317 312 311 288 172 186 201 219 155 109 109 106 122 347 22 191 148 143 120 125 149
153 161 164 163 153 188 337 330 323 329 333 339 339 335 326 326 324 326 320 321 317 253 241 151 153 147 168 158 142 136 131 60 71 85 63 60 174 182
182 178 179 184 182 186 199 230 287 304 323 327 328 322 324 325 324 319 320 324 315 311 196 160 156 165 184 174 134 141 151 150 141 104 48 14 352 231